SCP
0 0 0 0 0 0 0 0 0 0 0 0 0 0 0 0 0 0 0 0 -0 0 0 0 0 0 0 0 0 1 1 1 1 1 1 1 0 0 0 0 0 0 0 0
0 0 0 0 0 0 0 0 0 0 0 0 0 0 0 0 0 0 0 0 -0 0 0 0 0 0 0 0 0 1 1 1 1 1 1 1 0 0 0 0 0 0 0 0
0 0 0 0 0 0 0 0 0 0 0 0 0 0 0 0 0 0 0 0 -0 0 0 0 0 0 0 0 0 0 1 1 1 1 1 1 0 0 0 0 0 0 0 0
0 0 0 0 0 0 0 0 0 0 0 0 0 0 0 0 0 0 0 0 -0 0 0 0 0 0 0 0 0 0 1 1 1 1 0 0 0 0 0 0 0 0 0 0
0 0 0 0 0 0 0 0 0 0 0 0 0 0 0 0 0 0 0 0 0 0 0 0 0 0 0 0 0 0 1 1 1 0 0 0 0 0 0 0 0 0 0 0
0 0 0 0 0 0 0 0 0 0 0 0 0 0 0 0 0 0 0 0 0 0 0 0 0 0 0 0 0 0 1 1 1 0 0 0 0 0 0 0 0 0 0 0
0 0 0 0 0 0 0 0 0 0 0 0 0 0 0 0 0 0 0 0 0 0 0 0 0 0 0 0 0 0 0 0 0 0 0 0 0 0 0 0 0 0 0 0
0 0 0 0 0 0 0 0 0 0 0 0 0 0 0 0 0 0 0 0 0 0 0 0 0 0 0 0 0 0 0 0 0 0 0 0 0 0 0 0 0 0 0 0
0 0 0 0 0 0 0 0 0 0 0 0 0 0 0 0 0 0 0 0 0 0 0 0 0 0 0 0 0 0 0 0 0 0 0 0 0 0 0 0 0 0 0 0
0 0 0 0 0 0 0 0 0 0 0 0 0 0 0 0 0 0 0 0 0 0 0 0 0 0 0 0 0 0 0 0 0 0 0 0 0 0 0 0 0 0 0 0
0 0 0 0 0 0 0 0 0 0 0 0 0 0 0 0 0 0 0 0 0 0 0 0 0 0 0 0 0 0 0 0 0 0 0 0 0 0 0 0 0 0 0 0
0 0 0 0 0 0 0 0 0 0 0 0 0 0 0 0 0 0 0 0 0 0 0 0 0 0 0 0 0 0 0 0 0 0 0 0 0 0 0 0 0 0 0 0
0 0 0 0 0 0 0 0 0 0 0 0 0 0 0 0 0 0 0 0 0 0 0 0 0 0 0 0 0 0 0 0 0 0 0 0 0 0 0 0 0 0 0 0
0 0 0 0 0 0 0 0 0 0 0 0 0 0 0 0 0 0 0 0 0 0 0 0 0 0 0 0 0 0 0 0 0 0 0 0 0 0 0 0 0 0 0 0
0 0 0 0 0 0 0 0 0 0 0 0 0 0 0 0 0 0 0 0 0 0 0 0 0 0 0 0 0 0 0 0 0 0 0 0 0 0 0 0 0 0 0 0
0 0 0 0 0 0 0 0 0 0 0 0 0 0 0 0 0 0 0 0 0 0 0 0 0 0 0 0 0 0 0 0 0 0 0 0 0 0 0 0 0 0 0 0
0 0 0 0 0 0 0 0 0 0 0 0 0 0 0 0 0 0 0 0 0 0 0 0 0 0 0 0 0 0 0 0 0 0 0 0 0 0 0 0 0 0 0 0
0 0 0 0 0 0 0 0 0 0 0 0 0 0 -0 0 0 0 0 0 0 0 0 0 0 0 0 0 0 0 0 0 0 0 0 0 0 0 0 0 0 0 0 0
0 0 0 0 0 0 0 0 0 0 0 0 0 -0 -0 -0 0 0 0 0 0 0 0 0 0 0 0 0 0 0 0 0 0 0 0 0 0 0 0 0 0 0 0 0
0 0 0 0 0 0 0 0 0 0 0 0 0 0 0 0 0 0 0 0 0 0 0 0 0 0 0 0 0 0 0 0 0 0 0 0 0 0 0 0 0 0 0 0
0 0 0 0 0 0 0 0 0 0 0 0 0 0 0 0 0 0 0 0 0 0 0 0 0 0 0 0 0 0 0 0 0 0 0 0 0 0 0 0 0 0 0 0
0 0 0 0 0 0 0 0 0 0 0 0 0 0 0 0 0 0 0 0 0 0 0 0 0 0 0 0 0 0 0 0 0 0 0 0 0 0 0 0 0 0 0 0
0 0 0 0 0 0 0 0 0 0 0 0 0 0 0 0 0 0 0 0 0 0 0 0 0 0 0 0 0 0 0 0 0 0 0 0 0 0 0 0 0 0 0 0
0 0 0 0 0 0 0 0 0 0 0 0 0 0 0 0 0 0 0 0 0 0 0 0 0 0 0 0 0 0 0 0 0 0 0 0 0 0 0 0 0 0 0 0
0 0 0 0 0 0 0 0 0 0 0 0 0 0 0 0 0 0 0 0 0 0 0 0 0 0 0 0 0 0 0 0 0 0 0 0 0 0 0 0 0 0 0 0
0 0 0 0 0 0 0 0 0 0 0 0 0 0 0 0 0 0 0 0 0 0 0 0 0 0 0 0 0 0 0 0 0 0 0 0 0 0 0 0 0 0 0 0
Wind_Speed
2 4 6 9 10 13 15 17 20 20 16 16 19 22 22 18 17 18 18 17 16 16 16 14 13 13 13 15 16 17 17 17 14 11 11 11 11 11 11 11 14 16 15 15
4 7 8 10 11 12 15 17 19 17 14 15 18 22 21 17 16 15 16 16 15 14 13 12 12 12 12 14 15 17 17 17 17 13 12 11 11 9 11 10 13 16 16 16
8 8 7 9 11 12 14 15 16 18 20 14 15 17 15 11 11 12 13 13 12 13 13 11 11 11 11 12 13 13 16 17 17 16 11 10 9 8 9 12 12 15 16 16
7 6 7 10 11 11 14 11 15 17 15 10 9 12 11 10 9 9 9 9 9 10 11 10 10 10 11 11 10 13 15 16 17 16 14 16 13 12 11 12 11 14 16 16
7 7 9 10 10 11 10 14 16 17 14 13 11 11 9 7 9 9 8 7 7 7 8 9 9 9 9 8 9 11 13 15 17 17 17 17 15 12 10 12 15 15 15 16
9 6 6 7 10 10 11 13 14 10 8 9 8 8 8 6 9 9 8 8 7 6 7 7 7 7 6 6 7 9 12 14 15 17 18 19 18 16 15 15 15 13 12 13
7 4 3 5 8 5 7 8 5 4 4 6 4 7 5 8 10 10 9 9 9 8 6 6 6 6 5 5 6 8 11 12 14 16 18 18 18 18 18 16 16 15 12 12
7 6 3 4 6 7 7 5 6 7 6 8 6 6 3 7 9 9 9 9 10 9 8 7 6 6 5 5 6 7 10 11 12 14 16 16 17 14 13 16 15 15 13 13
6 8 5 7 6 5 5 4 5 7 9 9 6 4 3 7 10 11 12 11 11 11 10 8 7 6 6 6 5 7 9 10 11 13 14 15 16 15 15 16 16 13 13 13
5 9 7 5 5 3 5 6 4 5 7 7 6 5 6 11 13 13 14 13 12 11 11 10 8 7 7 6 6 5 7 8 10 12 12 11 15 16 15 14 15 15 15 15
5 7 7 4 3 6 4 3 4 5 6 7 7 4 5 8 11 12 13 13 12 12 11 11 10 9 7 7 5 3 4 6 8 10 12 12 13 14 15 14 15 15 14 16
4 5 8 8 5 5 5 5 4 5 6 7 8 5 3 8 10 11 13 13 13 12 11 10 10 10 8 7 5 3 3 5 7 8 10 12 12 13 15 15 16 15 15 15
3 4 7 4 3 2 4 5 5 7 8 8 9 7 4 9 11 12 13 13 12 12 11 10 10 10 9 7 6 5 4 4 6 7 8 9 11 13 14 16 16 16 15 15
4 6 8 10 9 7 9 10 9 8 7 9 12 14 12 13 14 13 13 13 12 11 11 11 10 10 10 9 7 6 5 4 5 6 8 9 10 12 13 14 15 15 15 14
4 8 11 15 16 14 16 16 13 12 12 12 13 15 14 13 14 13 12 12 12 11 11 12 12 10 10 10 9 7 6 5 4 5 7 8 9 10 11 12 13 13 14 14
5 7 8 13 13 14 17 17 15 14 13 14 15 15 11 13 11 11 11 11 11 11 12 12 12 12 10 10 9 9 7 6 5 5 6 7 7 8 9 11 11 12 13 13
6 6 6 10 9 12 13 11 11 11 10 11 12 11 12 12 12 11 10 10 10 12 12 12 12 12 11 10 9 9 8 7 6 5 5 6 7 7 8 9 11 11 12 13
8 7 5 7 7 11 5 2 6 10 11 11 10 11 11 12 12 11 8 9 11 11 11 11 11 12 11 11 10 9 8 7 5 5 5 5 6 7 7 9 10 11 10 11
12 9 6 5 8 13 9 6 6 7 10 9 9 10 11 10 10 7 6 8 9 10 10 10 11 11 11 10 10 9 8 7 6 5 4 4 5 7 7 9 9 9 9 9
10 10 8 7 8 10 5 2 2 4 9 5 6 8 9 8 8 6 8 10 11 11 10 10 10 11 10 10 9 9 8 7 6 6 5 5 5 6 7 8 9 8 8 8
7 9 11 12 11 11 6 3 4 7 5 1 5 7 7 7 8 10 12 12 11 12 11 10 10 9 10 10 9 8 7 7 7 7 6 5 5 5 7 7 7 7 7 8
10 9 10 9 11 11 4 6 7 6 3 5 6 7 8 9 10 11 11 11 11 11 11 10 9 10 9 9 8 9 8 8 7 6 5 4 4 3 4 5 6 7 7 8
11 10 6 10 10 5 5 8 7 6 7 8 8 8 9 10 11 11 11 11 11 11 11 10 10 10 9 8 8 9 9 8 6 6 5 4 3 3 4 5 6 6 7 6
8 7 8 9 13 12 11 11 10 9 10 10 9 9 10 11 11 11 11 10 10 10 10 9 10 10 10 9 8 8 8 7 6 5 4 3 2 2 2 3 4 5 6 6
9 8 9 13 14 13 12 12 11 10 9 9 9 9 10 11 11 11 11 10 10 10 9 9 9 10 11 10 9 9 8 7 6 5 4 3 2 2 2 2 2 4 4 6
11 12 12 12 10 10 10 8 9 10 10 10 10 10 9 9 11 11 10 10 10 9 9 9 9 10 11 10 10 9 8 6 5 4 3 2 1 1 1 1 1 1 2 4
Wind_Direction
290 262 270 286 282 283 289 286 288 288 290 289 279 279 280 282 274 268 263 259 253 249 251 250 245 242 236 228 220 213 205 199 191 185 181 175 178 173 172 174 176 177 176 178
278 269 285 292 288 282 281 283 286 293 300 294 285 281 278 275 271 268 265 259 255 252 251 249 242 240 232 227 219 214 205 199 193 189 184 179 173 175 174 173 178 181 180 180
284 298 307 295 292 290 285 283 288 294 304 288 287 282 274 272 271 271 268 263 258 251 249 247 243 237 230 228 220 215 207 198 194 190 184 174 165 167 177 179 180 185 184 183
285 295 297 295 294 298 292 293 292 292 296 295 296 293 288 293 293 295 291 280 266 260 253 250 248 241 232 230 225 221 210 200 194 189 188 181 180 181 185 182 181 184 187 186
290 303 302 297 302 302 289 301 291 283 283 283 273 270 285 301 301 306 305 298 286 278 265 258 251 246 240 234 226 224 211 203 195 191 192 189 190 188 180 183 183 185 187 189
279 287 289 293 301 291 296 297 285 266 262 265 266 260 292 325 315 316 320 323 315 303 286 269 258 248 244 237 232 227 209 205 198 195 195 196 193 188 183 186 183 185 186 188
304 272 282 298 307 303 318 316 300 273 241 263 287 263 288 335 338 331 330 335 336 335 323 304 290 264 247 238 234 229 212 206 201 200 199 200 197 192 190 188 187 185 187 189
311 305 328 320 309 303 307 302 305 305 299 305 292 266 318 351 349 347 349 348 347 344 339 332 319 302 274 254 243 232 215 210 206 203 203 201 201 197 194 192 191 191 192 192
298 294 311 308 301 288 304 306 299 284 282 277 272 281 311 355 359 360 359 356 351 349 345 334 325 316 301 282 256 236 220 212 209 208 205 203 201 201 198 193 195 195 195 191
274 283 293 308 286 249 282 300 291 286 297 289 286 304 334 349 352 353 351 349 348 348 348 343 335 324 314 299 284 246 226 219 216 211 208 205 203 203 199 194 195 195 195 191
248 268 289 290 273 293 294 282 287 282 286 295 299 312 5 345 345 342 342 344 343 343 344 343 339 331 319 310 296 263 235 230 224 218 213 208 206 204 201 199 197 197 194 193
235 264 276 272 270 278 262 273 274 284 285 277 282 286 357 343 337 335 335 339 341 344 344 343 343 340 329 317 308 291 255 240 234 227 219 212 207 205 203 201 199 196 195 193
212 243 283 272 201 205 256 259 263 269 271 268 270 280 344 340 334 335 335 335 338 340 344 348 348 346 340 330 326 314 286 259 247 232 220 216 211 205 205 204 199 196 195 193
241 234 242 269 289 293 278 275 271 263 260 268 264 284 305 322 327 331 333 333 334 337 342 346 348 347 343 336 329 324 314 282 257 241 221 214 215 208 206 204 199 195 194 194
241 253 251 263 273 274 270 272 267 253 255 265 279 285 299 312 316 319 322 327 331 337 341 343 344 343 341 340 336 329 321 312 278 250 233 219 220 215 205 202 200 196 194 195
224 259 269 268 269 271 271 268 262 256 254 258 271 277 294 306 307 310 316 321 328 333 334 335 338 339 338 336 335 331 321 314 296 261 242 228 220 214 205 200 197 195 194 194
220 236 261 272 284 282 263 255 249 249 248 254 265 279 302 306 308 309 313 318 321 324 325 328 331 331 331 328 327 326 320 310 297 274 253 235 219 211 205 197 195 193 193 192
220 222 245 275 281 255 259 220 245 256 257 251 259 278 294 301 303 298 301 312 316 319 320 322 324 323 322 321 320 320 318 315 303 288 264 244 225 215 206 199 198 196 193 193
216 219 236 250 260 269 268 240 228 248 264 245 255 278 295 306 301 290 305 316 315 315 312 313 316 316 315 319 318 316 317 317 308 299 282 266 237 216 207 201 198 196 193 195
206 216 232 235 252 260 265 175 192 242 259 233 253 279 295 306 297 309 330 322 316 314 311 311 313 314 315 317 316 312 315 315 307 300 290 272 248 223 212 206 199 194 194 194
187 207 223 235 247 262 267 191 182 232 266 266 262 276 287 282 284 305 311 310 310 311 313 313 312 312 314 316 314 309 312 309 305 298 289 274 252 231 217 207 198 191 188 185
197 202 210 218 233 249 189 179 217 256 299 273 273 278 283 285 290 296 302 306 308 310 312 315 312 310 313 315 312 307 306 305 305 298 288 278 260 242 223 203 194 187 181 180
215 214 212 215 234 267 204 227 251 271 270 276 278 284 286 286 289 294 298 301 304 307 309 311 310 308 311 313 310 303 305 306 302 298 288 279 267 237 216 200 189 182 179 178
223 215 228 243 252 255 254 257 259 261 268 277 280 285 283 282 288 292 294 297 300 303 306 309 309 307 309 312 308 301 303 303 295 290 289 280 264 244 210 195 186 184 183 177
227 202 226 248 260 269 260 253 256 265 270 272 276 278 279 282 284 288 291 293 297 300 303 304 303 303 305 309 306 306 305 300 289 281 278 267 254 239 210 197 198 195 199 186
220 219 229 247 253 253 265 264 266 268 267 274 280 282 282 280 281 285 287 289 292 295 300 301 300 300 303 308 307 307 306 296 282 274 270 253 229 228 212 171 79 54 148 141